Wind_Speed
21 22 23 23 23 23 23 23 22 21 20 19 17 15 13 11 8 6 6 6 7 9 10 12 15 17 20 21 23 24 26 28 29 31 33 34 35 36 36 37 37 37 36
21 22 22 22 22 23 23 23 22 21 20 19 17 15 14 12 10 8 6 6 6 7 8 10 12 15 16 18 20 22 24 26 28 29 31 33 34 35 36 37 36 37 37
20 21 21 21 22 22 22 22 22 21 20 19 18 16 14 13 11 9 8 7 6 6 6 8 10 12 14 17 19 21 21 23 25 27 29 30 32 34 34 36 36 37 37
20 20 21 21 21 21 22 21 21 21 20 19 18 16 15 14 13 11 10 8 7 6 6 7 9 10 11 14 17 19 20 21 22 24 26 28 30 32 34 34 36 37 38
19 20 20 21 21 21 21 20 20 20 20 19 18 17 16 14 13 12 11 10 8 7 5 6 7 8 10 11 14 17 18 19 20 22 23 25 27 29 31 33 34 35 36
19 19 19 20 20 20 20 20 20 20 20 19 18 17 16 15 14 13 12 11 9 8 7 6 6 7 9 11 12 14 15 17 18 20 22 23 24 26 29 30 32 34 34
18 18 19 20 20 20 19 19 19 19 19 19 18 17 16 15 14 13 13 11 10 9 8 7 7 7 8 10 11 12 14 16 16 17 19 21 23 25 26 28 30 31 33
18 18 19 19 19 19 19 19 19 19 19 18 17 16 16 15 14 13 13 12 11 10 9 9 8 7 7 9 10 11 13 15 16 16 18 20 21 23 24 26 28 29 31
18 18 19 19 19 19 19 19 19 19 18 18 17 16 15 15 14 14 13 12 12 11 10 10 9 8 8 8 9 10 11 13 16 17 17 19 20 21 22 24 26 27 29
18 18 19 19 19 19 19 19 19 18 18 18 17 16 15 15 14 14 14 13 13 12 11 11 10 9 9 9 9 10 10 12 13 15 16 17 18 19 21 22 23 25 27
18 19 19 19 19 19 19 19 18 18 18 18 17 16 15 15 14 14 14 14 13 13 12 12 11 11 10 10 10 10 10 11 12 14 15 16 17 18 20 22 23 24 25
19 20 20 20 19 19 19 19 18 18 18 18 17 17 16 15 15 14 14 14 13 13 13 12 12 12 12 11 10 10 11 12 12 14 15 16 17 19 20 21 22 24 24
20 20 21 20 20 20 20 19 19 19 18 18 18 18 17 16 16 15 15 14 14 14 14 13 13 12 12 12 12 12 11 12 13 14 15 16 17 19 20 21 22 23 24
21 21 21 21 21 20 20 20 20 20 19 19 19 19 18 17 17 16 16 15 15 15 15 14 14 14 14 14 14 14 14 13 14 14 15 17 18 19 20 21 23 24 25
22 22 22 22 22 21 21 21 21 21 21 20 20 20 19 19 18 18 18 17 16 16 16 16 16 15 16 16 16 16 15 15 15 16 17 18 19 19 20 22 23 25 26
23 23 23 23 23 23 23 23 23 23 22 22 22 21 21 21 21 20 20 20 19 19 18 18 18 18 18 18 18 18 18 18 18 18 18 19 20 21 22 23 24 26 26
25 25 25 25 25 25 25 25 25 24 24 23 23 23 23 23 23 23 22 22 22 21 21 21 20 20 20 20 21 21 21 21 22 22 22 22 23 23 24 25 25 27 27
27 27 27 27 27 27 27 27 26 26 26 26 26 25 25 25 25 25 25 24 24 24 24 24 24 24 23 23 24 24 24 25 25 26 26 26 26 27 27 28 28 28 29
30 30 30 29 29 29 29 29 28 28 28 28 28 28 28 27 27 27 26 26 26 26 26 26 27 27 27 27 27 27 27 28 28 29 29 30 31 31 31 31 31 32 32
32 32 32 32 32 32 31 31 31 31 30 30 31 30 30 29 29 29 29 29 29 29 29 29 29 29 30 30 30 30 31 31 31 32 32 33 34 35 35 35 35 35 35
35 35 34 34 34 34 34 34 33 33 33 33 33 32 32 31 31 31 31 31 32 32 32 32 32 32 33 33 33 34 34 35 35 36 36 37 37 38 38 39 40 40 40
37 37 37 37 37 36 36 36 36 36 35 35 35 34 34 34 33 33 34 34 34 34 34 35 35 35 36 36 37 37 38 38 39 39 40 41 41 42 42 43 43 43 44
39 39 39 39 39 39 38 38 38 38 37 37 37 36 36 36 36 36 36 36 36 37 37 37 38 38 39 40 40 41 42 42 42 43 43 44 45 45 45 46 46 46 47
42 42 42 41 41 40 40 40 39 39 39 39 38 38 38 38 38 39 39 39 39 39 39 40 40 41 41 42 43 44 45 45 46 47 47 48 48 48 49 49 49 50 50
43 43 43 42 42 42 41 41 41 41 41 40 40 40 40 40 41 41 41 41 41 41 41 42 42 43 44 45 46 47 48 48 49 50 51 51 51 52 52 52 52 52 53
45 44 44 44 43 43 43 43 43 43 42 42 42 42 42 42 42 42 42 42 42 43 43 44 45 46 46 47 48 49 50 51 52 52 53 54 54 54 54 54 54 54 54
Wind_Direction
0 1 3 4 5 6 6 7 8 8 8 9 9 8 7 4 356 339 319 299 276 263 254 248 243 242 241 238 236 236 235 234 234 234 235 235 236 236 236 236 237 236 236
359 0 2 3 5 6 8 9 10 9 10 10 10 9 9 8 4 357 344 325 298 275 260 251 246 244 242 237 236 235 236 236 235 235 235 236 237 236 237 236 237 238 238
358 360 1 2 4 6 7 8 10 10 11 12 12 11 10 9 7 0 352 337 319 295 275 261 253 250 246 240 238 238 238 238 238 237 237 236 236 235 237 236 237 238 237
356 358 360 1 2 4 5 7 8 9 9 11 13 13 13 11 8 3 357 348 335 310 287 274 265 256 251 244 240 240 241 241 239 238 239 239 239 237 238 238 238 239 239
354 356 357 359 360 1 2 4 6 7 7 8 10 10 9 8 7 5 2 358 355 343 316 294 278 264 256 250 245 244 242 241 241 241 241 242 241 241 239 239 239 240 241
353 354 355 356 358 359 360 2 4 4 5 5 4 5 6 6 7 5 2 358 355 352 342 323 302 278 263 254 249 246 244 243 244 244 245 245 244 243 241 241 241 240 241
350 351 352 354 355 356 357 358 360 1 1 2 2 3 3 5 5 5 5 2 355 348 341 331 318 300 280 264 256 253 249 248 248 247 247 248 247 246 245 245 243 243 241
346 347 348 350 351 353 354 354 356 357 358 359 359 359 360 360 359 359 359 360 358 351 344 339 329 315 298 280 268 263 256 254 253 252 251 251 251 249 249 247 246 242 241
340 343 345 346 347 348 350 351 352 353 355 357 356 356 356 355 355 354 353 352 350 346 341 337 332 323 311 299 282 272 265 263 260 258 259 256 255 255 253 248 247 245 243
334 338 341 343 344 344 345 347 349 352 353 354 355 354 352 352 352 350 348 347 345 342 337 332 328 321 312 304 293 284 276 271 267 264 261 258 257 256 256 252 249 247 245
328 332 335 337 339 341 341 342 344 347 349 350 349 348 347 347 347 347 345 343 342 341 337 332 328 324 318 311 299 288 280 275 269 266 264 261 259 257 257 256 254 253 250
322 326 329 331 333 334 336 337 337 339 342 344 344 343 341 339 340 340 339 338 336 336 335 333 329 325 321 317 310 299 287 279 275 272 271 268 263 261 261 261 259 259 258
317 320 322 325 327 328 330 331 332 333 334 335 337 337 337 336 334 333 332 332 331 328 326 325 323 322 319 314 310 307 300 291 282 277 274 272 269 268 265 264 263 262 259
311 314 315 318 320 322 323 325 326 327 328 328 328 329 329 329 328 328 327 327 327 326 323 320 319 315 314 313 308 306 303 298 291 286 281 277 274 272 269 267 265 264 262
305 308 310 311 313 315 317 318 319 320 321 322 322 322 321 321 321 321 321 320 320 319 318 317 315 313 311 309 308 304 300 297 293 289 285 283 279 275 273 270 268 267 266
300 303 306 307 308 310 311 313 313 314 314 315 315 315 315 315 314 313 312 311 311 311 310 309 308 306 304 302 301 300 298 294 293 292 289 286 283 281 278 275 273 270 270
295 298 301 303 304 306 307 308 309 309 310 310 310 309 309 309 309 308 306 305 304 303 303 303 302 301 300 299 296 295 294 293 291 290 289 287 284 283 282 280 277 274 273
291 294 297 299 301 302 303 303 304 305 306 307 306 306 305 304 304 304 303 301 300 299 298 298 297 297 296 295 295 293 292 291 290 289 288 287 285 283 281 279 278 276 273
287 290 292 295 297 298 299 300 300 301 302 303 303 302 301 301 301 301 299 299 298 297 296 295 294 293 292 292 292 291 291 290 289 288 288 287 286 285 282 280 278 276 274
284 287 289 291 293 295 296 296 297 298 299 300 300 299 298 297 298 298 297 297 296 296 295 294 293 292 291 291 290 289 289 288 287 287 286 286 285 284 283 281 278 276 274
282 284 286 288 290 292 294 294 295 296 297 298 297 297 296 295 295 295 295 295 295 295 294 294 293 292 291 291 290 290 289 288 287 286 285 285 284 283 282 280 279 277 275
280 283 284 286 288 290 291 292 293 294 295 296 295 294 294 293 293 293 293 294 294 294 294 293 292 291 291 291 291 290 290 289 288 287 286 285 284 283 282 280 278 277 275
279 281 283 285 286 287 288 289 291 292 293 294 294 293 292 292 291 291 291 292 293 293 293 292 291 291 291 291 291 292 291 291 290 289 288 287 285 283 282 280 279 276 275
278 280 282 283 284 285 286 287 289 290 291 292 293 292 292 291 291 291 291 292 292 292 292 292 291 292 292 292 292 293 293 292 291 290 289 287 286 284 282 281 279 278 276
276 278 280 281 282 283 285 286 287 288 289 291 291 291 291 291 291 291 291 292 292 292 292 292 292 292 293 293 293 293 293 293 292 291 290 288 287 286 284 282 280 278 276
275 277 278 280 281 282 283 284 285 287 288 290 290 291 290 291 291 291 291 292 292 292 292 292 293 293 293 293 294 293 293 293 293 292 290 289 288 287 285 282 280 278 276
Height
5805 5801 5796 5792 5787 5782 5778 5773 5768 5763 5759 5755 5751 5748 5746 5744 5742 5741 5740 5740 5740 5741 5742 5743 5745 5747 5749 5752 5755 5758 5761 5764 5768 5771 5775 5778 5782 5786 5790 5794 5798 5802 5805
5805 5800 5796 5792 5787 5783 5778 5773 5769 5764 5760 5756 5752 5749 5746 5744 5742 5740 5740 5739 5739 5739 5740 5740 5742 5743 5745 5747 5749 5752 5755 5758 5761 5764 5768 5771 5775 5779 5782 5786 5790 5794 5797
5804 5800 5796 5792 5787 5783 5779 5774 5770 5765 5761 5757 5753 5750 5747 5745 5743 5741 5739 5738 5738 5737 5737 5738 5738 5739 5740 5742 5744 5747 5749 5752 5754 5757 5761 5764 5767 5771 5774 5778 5782 5786 5789
5803 5799 5795 5791 5787 5783 5779 5775 5771 5766 5762 5758 5755 5751 5748 5746 5743 5741 5739 5737 5736 5736 5735 5735 5736 5736 5737 5738 5740 5742 5744 5746 5748 5751 5754 5757 5760 5763 5767 5770 5774 5777 5781
5802 5798 5795 5791 5787 5783 5779 5775 5771 5767 5763 5759 5756 5752 5749 5746 5744 5741 5739 5737 5736 5735 5734 5734 5734 5734 5734 5735 5736 5738 5739 5741 5743 5745 5748 5750 5753 5756 5759 5762 5765 5769 5772
5801 5797 5794 5790 5787 5783 5779 5775 5771 5767 5764 5760 5756 5753 5750 5747 5744 5742 5740 5738 5736 5735 5733 5733 5732 5732 5732 5732 5733 5734 5735 5737 5739 5740 5743 5745 5746 5749 5752 5754 5757 5761 5764
5799 5796 5793 5789 5786 5782 5778 5775 5771 5767 5764 5760 5757 5753 5750 5747 5745 5742 5740 5738 5736 5734 5733 5732 5731 5730 5730 5730 5730 5731 5732 5733 5734 5736 5737 5739 5740 5742 5745 5747 5750 5752 5756
5798 5795 5791 5788 5785 5781 5777 5774 5770 5767 5763 5760 5756 5753 5750 5748 5745 5742 5740 5738 5736 5734 5732 5731 5729 5729 5728 5728 5728 5728 5729 5729 5730 5731 5732 5733 5735 5736 5738 5740 5742 5745 5748
5796 5793 5789 5786 5783 5779 5776 5773 5769 5766 5763 5759 5756 5753 5750 5747 5745 5742 5740 5737 5735 5733 5732 5730 5729 5728 5727 5726 5726 5726 5726 5726 5726 5727 5728 5729 5730 5731 5732 5734 5736 5738 5741
5793 5790 5787 5784 5781 5778 5774 5771 5768 5765 5761 5758 5755 5752 5749 5746 5744 5741 5739 5737 5735 5733 5731 5729 5728 5726 5725 5724 5724 5723 5723 5723 5723 5723 5724 5724 5725 5726 5727 5729 5730 5732 5733
5790 5787 5784 5781 5778 5775 5772 5769 5766 5763 5760 5757 5754 5751 5748 5745 5743 5740 5738 5736 5734 5732 5730 5728 5726 5725 5723 5722 5721 5720 5720 5719 5719 5720 5720 5721 5721 5722 5722 5723 5724 5725 5727
5786 5784 5781 5778 5775 5773 5770 5767 5764 5761 5758 5755 5752 5749 5746 5744 5741 5739 5737 5734 5732 5730 5728 5727 5725 5723 5722 5720 5719 5718 5717 5716 5716 5716 5716 5716 5717 5717 5717 5718 5719 5719 5720
5782 5779 5777 5774 5772 5769 5766 5764 5761 5758 5756 5753 5750 5747 5744 5742 5739 5737 5735 5732 5730 5728 5726 5725 5723 5721 5720 5718 5717 5715 5714 5713 5713 5712 5712 5712 5712 5712 5712 5712 5713 5713 5714
5777 5775 5772 5770 5768 5765 5763 5760 5757 5755 5752 5749 5747 5744 5741 5739 5736 5734 5732 5730 5728 5726 5724 5722 5720 5719 5717 5715 5714 5712 5711 5710 5709 5708 5708 5707 5707 5706 5706 5706 5707 5707 5707
5771 5769 5767 5765 5763 5760 5758 5755 5753 5750 5748 5745 5743 5740 5738 5735 5733 5731 5728 5726 5724 5722 5720 5718 5717 5715 5713 5712 5710 5708 5707 5706 5705 5704 5703 5702 5701 5701 5700 5700 5700 5700 5700
5765 5763 5761 5759 5757 5755 5752 5750 5748 5745 5743 5740 5738 5736 5733 5731 5728 5726 5724 5722 5720 5718 5716 5714 5712 5710 5709 5707 5705 5704 5702 5701 5700 5699 5697 5696 5695 5695 5694 5693 5693 5692 5692
5758 5757 5755 5753 5751 5748 5746 5744 5741 5739 5737 5735 5732 5730 5728 5725 5723 5721 5718 5716 5714 5712 5710 5708 5706 5705 5703 5701 5699 5698 5696 5695 5694 5692 5691 5690 5689 5688 5687 5685 5684 5684 5683
5750 5749 5747 5746 5744 5741 5739 5737 5735 5732 5730 5728 5726 5723 5721 5719 5716 5714 5712 5710 5708 5706 5704 5702 5700 5698 5696 5694 5692 5691 5689 5687 5686 5685 5683 5682 5680 5679 5678 5677 5676 5675 5674
5742 5741 5739 5738 5736 5734 5732 5730 5727 5725 5723 5720 5718 5715 5713 5711 5709 5706 5704 5702 5700 5698 5696 5694 5692 5690 5688 5686 5684 5682 5681 5679 5677 5676 5674 5673 5671 5670 5668 5667 5666 5665 5664
5733 5731 5730 5729 5727 5725 5723 5721 5719 5717 5714 5712 5709 5707 5704 5702 5700 5698 5696 5693 5691 5689 5687 5685 5683 5681 5679 5677 5675 5673 5671 5669 5667 5666 5664 5662 5660 5659 5658 5656 5655 5654 5653
5722 5721 5720 5719 5717 5715 5713 5711 5709 5707 5705 5703 5700 5698 5695 5693 5691 5688 5686 5684 5682 5679 5677 5675 5673 5670 5668 5666 5664 5662 5660 5658 5656 5654 5652 5650 5648 5646 5645 5643 5642 5641 5640
5711 5710 5709 5708 5706 5705 5703 5701 5699 5697 5695 5692 5690 5687 5685 5683 5681 5678 5676 5674 5671 5669 5666 5664 5662 5659 5657 5654 5652 5650 5648 5645 5643 5641 5639 5637 5635 5632 5631 5629 5627 5626 5625
5699 5699 5697 5696 5695 5693 5691 5690 5688 5686 5683 5681 5679 5676 5674 5672 5669 5667 5665 5662 5660 5657 5654 5652 5649 5647 5644 5641 5639 5636 5634 5631 5629 5626 5624 5621 5619 5617 5614 5613 5611 5609 5608
5687 5686 5685 5684 5682 5681 5679 5678 5676 5674 5672 5670 5667 5665 5662 5660 5657 5655 5653 5650 5647 5645 5642 5639 5636 5634 5631 5628 5625 5622 5619 5616 5613 5610 5607 5605 5602 5599 5597 5595 5593 5591 5589
5674 5673 5672 5671 5669 5668 5666 5665 5663 5661 5659 5657 5655 5652 5650 5647 5645 5642 5640 5637 5634 5631 5629 5625 5622 5619 5616 5613 5610 5606 5603 5599 5596 5592 5589 5586 5583 5580 5577 5575 5573 5571 5569
5660 5659 5658 5657 5656 5655 5653 5652 5650 5648 5646 5644 5642 5639 5637 5634 5632 5629 5626 5624 5621 5618 5615 5611 5608 5605 5601 5597 5594 5590 5586 5582 5578 5574 5570 5567 5563 5560 5556 5554 5551 5549 5547